Orbital Elements at Epoch 2459200.5 (2020-Dec-17.0) TDB
Reference: JPL 18 (heliocentric ecliptic J2000)
Element | Value | Uncertainty (1-sigma) | Units |
e | .06416448788458222 | 5.1298e-08 | |
a | 2.779594267875305 | 2.0256e-08 | au |
q | 2.601243025150165 | 1.5413e-07 | au |
i | 5.393381719952373 | 4.5778e-06 | deg |
node | 124.1485859692126 | 4.9028e-05 | deg |
peri | 287.9340669011408 | 6.7448e-05 | deg |
M | 298.1646775011339 | 4.9777e-05 | deg |
tp | 2459491.239920515464 (2021-Oct-03.73992052) | 0.00023568 | TDB |
period | 1692.663143909151 4.63 | 1.8503e-05 5.066e-08 | d yr |
n | .2126826009625233 | 2.3249e-09 | deg/d |
Q | 2.957945510600444 | 2.1556e-08 | au |
|
| | Orbit Determination Parameters
Additional Information
|